Location: Newark
(52.3735°N, 16.9806°E)
Time: 11:27:59
(UTC+00:00)

Envisat - Visible Passes

Search period start: 17 September 2021 00:00
Search period end: 27 September 2021 00:00
Orbit: 764 x 766 km, 98.2° (Epoch: 17 September)

Date Brightness Start Highest point End Pass type
(mag) Time Alt. Az. Time Alt. Az. Time Alt. Az.
17 Sep 3.9 03:54:32 10° NNE 03:59:34 55° E 04:04:32 10° S visible
18 Sep 5.2 03:18:04 10° NNE 03:22:28 29° E 03:26:50 10° SSE visible
19 Sep 5.9 02:42:17 10° NE 02:45:10 15° E 02:48:01 10° ESE visible
20 Sep 4.3 03:43:06 10° NNE 03:48:00 45° E 03:52:52 10° S visible
21 Sep 5.5 03:06:46 10° NE 03:10:50 24° E 03:14:53 10° SE visible
22 Sep 6.1 02:31:32 10° ENE 02:33:28 12° E 02:35:25 10° ESE visible
23 Sep 4.7 03:31:42 10° NNE 03:36:25 37° E 03:41:06 10° SSE visible
24 Sep 5.8 02:55:32 10° NE 02:59:12 19° E 03:02:50 10° SE visible
25 Sep 3.8 03:56:51 10° NNE 04:01:54 59° E 04:06:54 10° S visible
26 Sep 5.1 03:20:19 10° NNE 03:24:49 30° E 03:29:17 10° SSE visible
